Content
SEND FEEDBACK

Daily
Averages
Monthly
Summary
United States of America

ASATDAS, GUAM


Home > North America > United States > Guam
Elevation: 612 feet     Latitude: 13 35N     Longitude: 144 56E

WEATHER
 
SELECT A DAY
Number of Records: 206,952;   Date Range: 1/1/95 - 4/19/14
 
SHARE

PRINT THIS DATA

[ ← Previous Day ]
WEATHER ALMANAC - FEBRUARY 22, 2013
[ Next Day → ]
[ °C ]   °F
Weather ElementAverageHighLow
Temperature78.9 °F86.2 °F (12:54 pm) (3:06 am)
Dewpoint70.7 °F74.5 °F (11:54 pm) (7:00 pm)
Humidity75.7 %86 % (11:54 pm)66 % (10:36 am)
Barometer29.88 in29.93 in (10:36 am)29.83 in (2:54 am)
Wind Speed14.6 mph24.2 mph (12:54 pm)
Wind Gust31.1 mph (2:54 pm)
Weather ElementAverage
Visibility10 mi
Wind DirectionENE (67.3 °)

Weather ElementTotal
Precipitation---
Heating Degree Days21.9 (Base 65)
Averaged from 30 records on February 22, 2013
WEATHER CONDITIONS BREAKOUT
WIND DIRECTION BREAKOUT
WEATHER BY HOUR - FEBRUARY 22, 2013
[ °C ]   °F
Local TimeTemperatureDewpointHumidityBarometerVisibilityWind DirectionWind SpeedGust SpeedPrecipitationEventsConditions
1:54 AM78.6 °F72.3 °F81 %29.85 in10.0 miENE (70°)12.7 mphPartly Cloudy
2:54 AM78.6 °F72.9 °F82 %29.83 in10.0 miENE (60°)10.4 mphMostly Cloudy
3:06 AM0.0 °F0.0 °F29.85 in10.0 miENE (70°)12.7 mphScattered Clouds
3:54 AM78.8 °F71.6 °F78 %29.84 in10.0 miEast (80°)12.7 mphPartly Cloudy
4:25 AM78.8 °F71.6 °F78 %29.84 in10.0 miEast (80°)12.7 mph21.9 mphPartly Cloudy
4:54 AM78.8 °F72.1 °F80 %29.83 in10.0 miEast (80°)13.8 mphPartly Cloudy
5:54 AM78.1 °F71.1 °F79 %29.85 in10.0 miEast (80°)12.7 mphPartly Cloudy
6:54 AM77.9 °F71.2 °F80 %29.87 in10.0 miEast (80°)15.0 mphPartly Cloudy
7:54 AM78.1 °F72.0 °F81 %29.90 in10.0 miENE (70°)10.4 mphMostly Cloudy
8:07 AM78.8 °F71.6 °F78 %29.92 in10.0 miENE (70°)12.7 mphMostly Cloudy
8:54 AM81.9 °F72.9 °F74 %29.91 in10.0 miENE (70°)13.8 mphScattered Clouds
9:54 AM81.7 °F72.5 °F74 %29.92 in10.0 miENE (60°)18.4 mph28.8 mphMostly Cloudy
10:36 AM86.0 °F73.4 °F66 %29.93 in10.0 miNE (50°)13.8 mph26.5 mphMostly Cloudy
10:54 AM85.1 °F73.8 °F69 %29.90 in10.0 miENE (70°)15.0 mph25.3 mphMostly Cloudy
11:06 AM84.2 °F73.4 °F70 %29.92 in10.0 miEast (80°)19.6 mph26.5 mphPartly Cloudy
11:54 AM84.9 °F73.6 °F69 %29.88 in10.0 miENE (70°)23.0 mph27.6 mphScattered Clouds
12:54 PM86.2 °F73.6 °F66 %29.86 in10.0 miENE (60°)24.2 mph29.9 mphPartly Cloudy
1:54 PM86.2 °F73.9 °F67 %29.85 in10.0 miEast (80°)21.9 mph27.6 mphScattered Clouds
2:54 PM85.3 °F73.0 °F67 %29.83 in10.0 miENE (70°)19.6 mph31.1 mphPartly Cloudy
3:45 PM86.0 °F73.4 °F66 %29.85 in10.0 miEast (80°)16.1 mphMostly Cloudy
3:54 PM84.7 °F73.4 °F69 %29.85 in10.0 miENE (70°)17.3 mph25.3 mphMostly Cloudy
4:17 PM84.2 °F73.4 °F70 %29.85 in10.0 miNE (50°)18.4 mphMostly Cloudy
4:54 PM83.8 °F74.3 °F73 %29.84 in10.0 miENE (70°)13.8 mphScattered Clouds
5:54 PM81.7 °F73.9 °F77 %29.86 in10.0 miNE (50°)16.1 mphScattered Clouds
6:54 PM79.9 °F73.6 °F81 %29.88 in10.0 miENE (60°)12.7 mphScattered Clouds
7:54 PM79.5 °F74.1 °F83 %29.90 in10.0 miENE (60°)10.4 mphPartly Cloudy
8:54 PM79.7 °F74.3 °F83 %29.91 in10.0 miNE (50°)11.5 mphMostly Cloudy
9:54 PM79.7 °F74.1 °F83 %29.93 in10.0 miENE (60°)8.1 mphScattered Clouds
10:54 PM79.3 °F74.3 °F84 %29.93 in10.0 miENE (60°)9.2 mphScattered Clouds
11:54 PM79.0 °F74.5 °F86 %29.92 in10.0 miENE (60°)8.1 mphScattered Clouds
Hourly data recorded from PGUM, located 10.70 miles away from Asatdas, Guam







STORIES FROM OUR PARTNERS